Flag Weather past 2 weeks in Saint George's, Grenada

Now
84 °F

Passing clouds.


Feels Like: 94 °F
Forecast: 74 / 80 °F
Wind: 17 mph from Southeast

Location: Point Salines Airport

Current Time: Nov 27, 2014 at 1:55:45 PM

Latest Report: Nov 27, 2014 at 1:00 PM


Visibility: N/A

Pressure: 29.89 "Hg

Humidity: 79%

Dew point: 77 °F

Location of Saint George'sLocation

Historic Weather in Saint George's — Graph

°F

Saint George's temperature yesterday

Maximum temperature yesterday: 86 °F (at 10:00 AM)
Minimum temperature yesterday: 77 °F (at 8:00 PM)
Average temperature yesterday: 82 °F

Past Weeks' High & Low Weather Summary

 TemperatureHumidityPressure
High86 °F (Nov 12, 12:00 PM)100% (Nov 13, 7:00 AM)30.09 "Hg (Nov 13, 7:00 AM)
Low75 °F (Nov 13, 9:00 AM)66% (Nov 21, 11:00 AM)29.77 "Hg (Nov 12, 3:00 PM)
Average80 °F86%29.89 "Hg
* Reported Nov 12 12:00 Noon — Nov 27 12:00 Noon, Saint George's, Weather by CustomWeather, © 2014

Note: Actual official high and low records may vary slightly from our data, if they occured in-between our weather recording intervals... More about our weather records

Advertising

Saint George's weather history for previous 24 hours

 ConditionsComfort  
Time TempWeatherWind HumidityBarometerVisibility
12:00 PM
Nov 27
84 °FPassing clouds.17 mph79%29.92 "HgN/A
11:00 AM86 °FPassing clouds.10 mph70%30.09 "HgN/A
10:00 AM84 °FPassing clouds.16 mph79%29.95 "HgN/A
9:00 AM84 °FPassing clouds.10 mph74%29.95 "HgN/A
8:00 AM82 °FPassing clouds.9 mph79%29.92 "HgN/A
7:00 AM77 °FPassing clouds.9 mph89%29.89 "HgN/A
6:00 AM77 °FPassing clouds.6 mph89%29.86 "HgN/A
5:00 AM77 °FPassing clouds.7 mph94%29.86 "HgN/A
4:00 AM77 °FRain showers. Passing clouds.12 mph94%29.86 "Hg3 mi
3:00 AM79 °FPassing clouds.7 mph84%29.86 "HgN/A
1:00 AM77 °FPassing clouds.8 mph89%29.86 "HgN/A
12:00 AM77 °FPassing clouds.9 mph89%29.89 "HgN/A
11:00 PM
Nov 26
77 °FPassing clouds.8 mph94%29.89 "HgN/A
10:00 PM79 °FPassing clouds.6 mph89%29.92 "HgN/A
9:00 PM79 °FPassing clouds.7 mph89%29.89 "HgN/A
8:00 PM77 °FPassing clouds.8 mph94%29.89 "HgN/A
7:00 PM79 °FPassing clouds.7 mph94%29.86 "HgN/A
6:00 PM81 °FScattered showers. Passing clouds.N/A84%29.86 "HgN/A
5:00 PM82 °FSprinkles. Scattered clouds.12 mph79%29.83 "Hg6 mi
4:00 PM84 °FSprinkles. Passing clouds.12 mph74%29.83 "Hg6 mi
3:00 PM84 °FPassing clouds.13 mph79%29.83 "Hg6 mi
2:00 PM86 °FScattered clouds.17 mph66%29.86 "HgN/A
1:00 PM86 °FScattered clouds.18 mph70%29.89 "HgN/A
Weather by CustomWeather, © 2014

See weather overviewHow to use our weather pages